Wind_Speed
68 68 70 69 67 72 78 79 70 64 60 58 57 58 58 59 60 60 61 63 63 63 59 53 47 42 42 42 40 39 50 44 42 33 43 46 43 42 39 39 38 36 36 34
68 66 66 67 72 76 74 64 60 59 58 56 55 55 58 60 61 60 60 59 60 58 51 48 43 38 39 39 38 37 40 53 50 29 28 46 42 44 45 39 39 38 39 37
62 63 67 72 73 67 60 59 58 56 54 53 53 55 56 57 60 59 58 57 53 46 40 41 38 35 34 34 33 32 32 38 43 46 37 31 39 38 36 38 37 35 37 36
61 66 68 66 59 57 57 56 54 53 54 54 55 54 54 55 54 54 53 50 44 41 37 33 34 33 27 28 29 26 24 30 27 29 37 34 40 44 43 39 37 40 39 36
65 67 61 53 55 55 54 53 53 54 53 52 53 53 53 53 52 49 48 44 39 35 35 33 30 30 27 19 20 22 20 21 27 32 29 30 29 26 37 33 36 38 49 43
60 53 52 53 52 51 52 53 52 52 52 53 51 50 50 50 48 46 45 43 37 33 33 33 32 29 26 22 15 16 11 12 15 16 23 22 27 28 27 32 35 37 38 36
49 51 51 50 50 51 53 53 52 52 51 50 49 49 49 47 44 43 43 42 37 34 35 35 34 27 22 20 16 13 12 10 12 13 14 18 18 13 17 24 33 33 40 42
50 48 48 48 52 53 54 53 52 51 50 48 48 48 47 44 41 40 39 39 37 35 32 29 24 20 17 16 15 13 13 12 13 11 14 17 16 17 16 18 16 16 21 27
44 46 49 50 52 54 54 53 51 50 48 47 46 46 44 41 39 39 38 36 36 33 29 22 18 17 18 18 16 12 9 11 10 9 8 11 15 15 18 21 23 22 23 24
43 47 49 52 54 54 53 52 50 48 48 47 45 43 42 39 37 35 34 34 31 27 25 20 17 17 18 19 15 16 15 10 6 5 5 8 5 8 11 15 16 18 20 22
44 48 52 54 54 54 52 51 49 48 48 46 44 43 40 37 35 34 32 28 26 26 22 20 17 18 17 18 17 16 13 14 12 9 5 4 7 4 3 3 8 9 10 11
47 51 54 55 55 54 52 51 50 49 48 45 42 40 38 36 35 33 30 28 26 25 22 20 19 17 16 15 13 15 15 15 13 10 10 7 6 4 3 2 4 5 7 9
49 53 56 55 54 54 53 51 51 50 47 43 42 38 37 35 32 30 27 25 24 23 20 19 18 18 17 15 15 14 14 13 12 10 8 7 6 6 6 7 8 9 11 13
48 52 56 57 57 56 54 51 50 49 45 42 40 37 35 32 29 27 25 24 22 21 20 20 20 20 18 17 17 17 15 14 12 12 11 10 9 9 10 11 12 14 15 17
49 53 56 56 58 56 54 52 52 47 45 42 39 36 33 28 27 26 24 23 23 22 23 24 21 19 19 18 17 16 15 15 15 14 14 13 14 15 16 17 18 19 20 21
50 53 55 57 57 55 53 52 51 49 43 39 37 35 31 27 25 24 23 22 23 23 24 24 24 23 22 23 22 20 19 18 17 17 19 19 18 18 18 20 21 22 24 24
50 53 55 56 55 54 54 54 52 47 42 37 34 33 31 28 25 23 22 22 22 23 23 23 24 24 22 20 20 19 20 22 20 19 18 19 22 22 22 22 24 25 26 26
49 53 54 54 54 53 52 52 50 44 39 36 36 35 31 28 26 23 22 21 22 24 24 24 22 22 22 20 19 19 20 20 23 25 23 22 23 24 24 24 25 25 28 29
49 51 52 54 51 50 50 50 45 39 37 38 39 36 31 28 27 25 22 20 21 23 21 20 19 19 19 20 21 21 21 21 19 21 24 24 23 23 26 27 28 26 26 28
47 50 52 50 51 48 46 48 49 45 41 40 40 36 30 27 26 24 20 19 18 17 18 18 19 21 23 25 25 26 27 27 25 23 22 23 24 26 27 29 29 30 29 29
47 49 52 53 51 49 52 52 48 45 43 43 42 38 33 30 27 24 20 18 17 17 18 19 20 21 21 23 26 26 27 28 29 30 30 30 31 30 29 30 32 33 34 34
46 50 52 53 58 58 55 55 53 49 45 41 41 39 34 30 27 23 19 17 17 19 19 21 21 23 25 25 26 27 28 30 31 34 34 36 37 38 39 39 40 40 41 43
47 49 55 61 62 58 57 54 52 47 44 41 41 40 35 30 27 23 20 19 19 19 21 23 25 26 27 29 29 30 34 36 37 39 41 42 43 45 46 46 48 49 51 52
48 51 58 62 61 57 53 53 52 49 44 41 41 40 34 30 26 23 23 22 24 24 25 27 29 30 31 34 37 40 40 42 44 46 47 49 51 51 54 56 57 57 56 56
48 55 58 58 57 54 51 50 50 48 45 41 39 37 33 31 30 31 29 30 29 31 32 33 34 37 40 42 44 46 48 50 52 53 55 57 58 59 58 59 59 58 57 56
53 56 57 57 56 54 52 50 49 49 47 43 40 37 37 36 34 32 31 30 33 35 39 41 42 43 45 48 50 53 55 57 60 61 63 64 63 61 57 55 53 51 50 49
54 55 57 59 59 57 55 52 49 49 47 45 41 38 36 37 36 34 34 35 37 38 39 43 47 49 50 53 55 59 62 64 66 67 64 61 58 56 53 50 48 47 46 46
Wind_Direction
314 315 313 315 317 316 315 317 320 321 321 321 321 321 320 319 318 318 318 317 316 314 312 311 307 303 295 291 281 266 250 264 263 263 275 254 256 251 260 257 256 259 244 254
314 317 319 318 317 317 320 323 324 323 323 323 324 325 324 322 321 320 318 317 315 315 312 311 310 306 300 296 288 276 261 254 255 260 262 247 247 247 253 257 251 245 252 253
321 321 318 318 320 325 327 326 325 325 328 328 329 329 327 326 324 322 320 319 318 317 315 314 315 314 309 302 296 285 269 256 253 258 260 256 248 244 248 242 243 244 253 260
320 319 321 325 328 328 328 328 330 332 333 330 330 329 329 325 325 323 323 325 325 323 323 323 321 322 322 311 302 294 272 259 240 256 256 256 260 252 245 239 242 244 242 255
321 324 328 329 329 331 331 333 333 333 332 331 329 328 326 325 326 328 331 332 333 331 334 334 332 329 327 323 284 294 292 259 245 248 251 269 264 261 226 235 241 246 246 255
328 330 329 331 333 332 334 333 333 332 331 331 328 328 328 328 331 334 336 337 342 341 341 344 342 337 336 337 327 299 309 265 245 250 252 257 262 268 255 244 248 246 244 250
330 331 334 334 334 335 335 334 333 332 331 330 330 330 330 333 336 339 340 345 345 348 346 346 341 341 340 336 331 319 306 294 251 237 234 254 258 259 260 257 247 246 246 242
333 337 337 337 337 336 336 335 334 332 330 330 332 333 334 336 338 340 343 347 348 349 346 331 335 344 352 354 347 325 310 306 291 274 249 250 248 253 248 259 261 249 246 249
336 338 338 338 337 336 336 336 335 333 331 331 332 334 336 338 340 341 345 348 351 345 340 346 350 2 17 13 12 11 330 305 297 287 274 255 245 246 241 250 250 249 249 251
339 338 339 339 338 338 339 339 337 334 334 333 335 335 337 340 343 343 346 349 343 346 345 340 356 17 23 23 27 26 9 359 330 311 304 264 274 263 249 243 247 251 248 248
341 339 341 341 340 341 340 339 338 337 335 336 336 337 339 342 342 345 347 346 345 347 342 348 6 18 17 19 24 28 25 35 39 28 355 351 339 337 292 258 257 266 272 270
342 344 344 344 344 342 342 341 340 338 338 338 340 340 341 342 343 344 345 349 350 353 351 359 7 9 6 9 11 22 19 29 33 33 42 43 39 30 15 331 299 285 281 282
347 346 345 346 346 345 345 344 341 341 341 341 342 341 341 342 341 341 345 349 351 356 356 2 2 2 359 357 358 9 10 6 8 9 10 1 351 337 322 310 302 296 294 293
347 346 346 347 347 347 346 344 343 345 343 344 344 342 341 338 337 340 346 351 353 358 4 3 2 358 357 355 354 354 349 349 341 335 333 323 310 303 298 293 290 288 287 287
347 348 348 348 348 347 346 344 346 346 346 345 344 342 338 335 337 342 347 352 354 359 5 7 359 353 351 351 349 345 340 336 331 325 318 313 309 306 303 298 295 293 292 292
348 348 349 350 349 347 347 347 347 348 348 348 345 343 340 340 342 344 347 352 356 0 4 1 358 357 353 351 346 345 338 332 328 326 321 315 310 304 300 298 297 295 293 292
349 349 353 352 350 349 348 348 350 351 351 350 347 347 347 348 347 346 348 351 355 357 358 354 355 354 354 346 337 337 336 334 333 330 323 319 312 309 306 302 298 296 294 292
351 355 356 354 353 351 350 351 353 352 353 354 354 355 353 350 351 351 353 351 354 351 349 349 352 352 354 355 359 352 343 339 334 331 330 325 319 315 311 307 303 301 298 298
354 358 360 359 356 352 353 353 356 359 358 357 359 357 355 354 355 353 352 349 346 345 346 348 352 354 359 4 4 359 356 353 350 339 337 338 332 326 320 317 313 310 303 299
356 1 4 1 0 357 356 356 360 358 360 360 1 360 359 358 357 357 351 344 343 344 350 352 359 2 5 3 359 357 354 350 348 347 343 339 336 333 328 325 322 319 314 307
360 4 4 6 4 2 3 2 0 359 0 2 4 4 3 3 4 2 358 353 350 357 1 2 3 360 360 356 353 350 347 345 341 340 337 335 331 327 324 320 317 314 311 308
3 5 5 7 7 8 6 5 3 3 4 3 4 5 3 5 3 4 5 1 6 7 356 355 357 357 355 352 349 345 343 340 337 333 330 327 323 320 317 314 311 308 304 301
6 5 6 7 11 8 7 5 6 4 3 4 7 6 6 6 5 6 4 3 6 359 359 358 356 354 348 343 341 338 333 331 329 326 323 321 318 314 310 308 306 304 302 299
5 5 10 12 11 9 6 5 6 5 3 4 8 6 3 5 4 5 7 5 6 4 360 358 352 345 341 337 334 332 330 326 324 321 319 316 314 311 308 305 303 300 297 294
5 9 12 12 11 9 7 6 7 6 6 7 8 5 5 5 6 9 5 5 358 354 354 348 344 340 337 335 332 329 326 324 321 320 318 315 312 310 308 305 303 301 299 296
10 12 12 12 11 10 8 7 6 7 9 8 9 5 9 13 12 8 4 358 354 351 345 341 339 337 334 332 331 329 327 325 323 321 319 318 316 315 313 310 308 306 304 302
10 11 12 11 11 10 9 7 6 8 9 11 9 9 11 8 8 3 1 358 353 347 343 339 336 336 335 332 331 330 329 326 324 324 323 321 320 319 318 315 312 310 307 304
Height
5685 5675 5665 5654 5643 5631 5619 5606 5596 5583 5572 5562 5548 5538 5527 5519 5509 5495 5482 5471 5460 5451 5438 5436 5428 5424 5414 5413 5412 5414 5415 5414 5420 5423 5427 5427 5430 5433 5436 5437 5441 5443 5443 5446
5674 5664 5653 5641 5631 5619 5606 5595 5585 5575 5564 5553 5543 5529 5517 5505 5497 5486 5473 5463 5451 5440 5429 5423 5417 5413 5405 5401 5398 5398 5401 5402 5408 5413 5416 5415 5416 5420 5423 5427 5430 5433 5434 5437
5663 5652 5640 5629 5617 5606 5594 5584 5574 5565 5554 5544 5532 5521 5511 5499 5484 5474 5462 5452 5441 5432 5424 5413 5409 5403 5396 5390 5387 5385 5385 5388 5395 5401 5405 5405 5406 5409 5412 5417 5420 5424 5425 5428
5652 5641 5628 5617 5605 5595 5586 5576 5566 5555 5543 5534 5523 5512 5502 5489 5480 5468 5455 5442 5431 5422 5416 5410 5401 5395 5390 5381 5377 5376 5376 5378 5385 5389 5391 5394 5397 5398 5402 5406 5410 5413 5416 5419
5640 5630 5617 5607 5599 5587 5579 5568 5557 5546 5535 5525 5515 5503 5493 5483 5471 5461 5448 5436 5426 5418 5410 5403 5397 5390 5384 5380 5375 5372 5370 5372 5377 5380 5383 5386 5388 5388 5390 5395 5398 5402 5407 5411
5630 5621 5612 5602 5591 5582 5570 5560 5550 5538 5528 5516 5508 5498 5487 5475 5463 5453 5442 5432 5422 5414 5407 5398 5392 5386 5380 5375 5372 5369 5369 5369 5372 5375 5376 5378 5381 5382 5383 5385 5389 5394 5397 5400
5623 5615 5605 5595 5586 5576 5565 5553 5542 5532 5521 5510 5498 5488 5480 5468 5457 5446 5436 5427 5419 5411 5403 5396 5390 5384 5379 5373 5370 5368 5366 5367 5368 5369 5370 5373 5374 5373 5375 5378 5380 5383 5386 5388
5618 5608 5599 5589 5579 5568 5557 5545 5535 5525 5515 5504 5493 5482 5471 5461 5452 5443 5434 5425 5416 5409 5403 5399 5392 5385 5380 5374 5369 5366 5365 5364 5364 5366 5367 5368 5369 5369 5372 5375 5377 5377 5378 5380
5614 5604 5594 5584 5574 5563 5551 5540 5529 5519 5510 5499 5488 5477 5467 5457 5447 5439 5430 5422 5414 5409 5403 5396 5391 5384 5379 5375 5371 5367 5364 5363 5363 5363 5363 5363 5364 5364 5365 5368 5372 5372 5372 5373
5609 5601 5590 5579 5568 5557 5545 5534 5522 5512 5501 5491 5481 5471 5462 5452 5444 5436 5428 5421 5414 5408 5402 5397 5391 5386 5382 5378 5375 5370 5367 5363 5361 5360 5360 5361 5361 5361 5361 5365 5367 5365 5365 5366
5606 5597 5585 5573 5562 5550 5539 5528 5517 5507 5495 5485 5475 5465 5456 5447 5440 5433 5427 5421 5414 5407 5402 5397 5392 5387 5384 5381 5377 5374 5371 5367 5364 5362 5361 5362 5360 5360 5361 5361 5360 5361 5361 5361
5603 5591 5579 5569 5557 5545 5533 5522 5510 5500 5490 5480 5469 5460 5451 5443 5436 5431 5425 5419 5412 5406 5401 5396 5393 5389 5386 5383 5379 5376 5373 5370 5368 5367 5364 5363 5362 5361 5360 5359 5359 5359 5358 5357
5595 5586 5576 5564 5552 5540 5528 5515 5505 5495 5484 5474 5465 5456 5448 5440 5435 5429 5424 5418 5412 5406 5401 5397 5394 5390 5387 5384 5380 5377 5374 5372 5370 5369 5367 5364 5363 5362 5360 5359 5358 5356 5355 5354
5593 5584 5573 5559 5547 5535 5522 5512 5501 5490 5481 5472 5463 5454 5446 5439 5434 5428 5422 5416 5411 5406 5401 5397 5393 5390 5387 5383 5380 5377 5375 5372 5370 5368 5366 5364 5362 5360 5358 5357 5355 5353 5352 5350
5592 5581 5569 5556 5543 5529 5519 5508 5497 5486 5478 5468 5459 5451 5445 5438 5432 5426 5420 5415 5410 5405 5400 5396 5393 5390 5386 5382 5379 5376 5373 5371 5368 5366 5364 5361 5359 5356 5354 5352 5349 5347 5345 5343
5589 5577 5566 5552 5539 5528 5517 5506 5495 5484 5473 5464 5456 5449 5442 5436 5429 5424 5419 5414 5409 5404 5399 5395 5392 5388 5385 5381 5377 5374 5370 5368 5365 5362 5359 5357 5354 5351 5349 5346 5344 5341 5339 5336
5586 5575 5562 5548 5537 5525 5513 5503 5491 5480 5471 5463 5456 5447 5439 5433 5427 5422 5417 5412 5408 5404 5400 5396 5392 5388 5385 5381 5378 5374 5369 5365 5362 5359 5357 5353 5349 5346 5343 5340 5336 5334 5331 5328
5585 5572 5559 5547 5534 5522 5511 5498 5488 5478 5470 5462 5453 5445 5438 5431 5425 5421 5416 5411 5407 5403 5399 5396 5392 5388 5384 5380 5376 5372 5368 5364 5359 5355 5351 5348 5344 5340 5336 5334 5330 5327 5322 5319
5582 5571 5559 5546 5536 5524 5511 5500 5489 5477 5470 5461 5452 5444 5437 5431 5424 5419 5415 5411 5408 5404 5400 5396 5393 5388 5383 5379 5375 5371 5366 5362 5359 5353 5348 5344 5340 5336 5331 5326 5322 5319 5316 5312
5581 5570 5558 5548 5536 5524 5515 5503 5489 5479 5471 5460 5452 5444 5437 5431 5424 5419 5415 5412 5408 5404 5402 5397 5392 5387 5382 5377 5373 5368 5363 5359 5354 5351 5347 5342 5336 5331 5326 5321 5316 5311 5308 5303
5580 5569 5559 5547 5536 5525 5510 5498 5490 5479 5469 5460 5451 5443 5436 5430 5424 5419 5416 5411 5408 5405 5401 5396 5391 5386 5382 5377 5371 5367 5362 5356 5350 5345 5339 5334 5329 5325 5320 5315 5309 5303 5298 5293
5580 5569 5559 5548 5534 5518 5510 5497 5485 5475 5467 5460 5452 5444 5436 5430 5424 5420 5416 5412 5408 5404 5401 5396 5390 5385 5380 5375 5371 5365 5359 5353 5347 5340 5334 5328 5322 5315 5310 5304 5298 5293 5287 5281
5578 5571 5559 5545 5531 5520 5507 5499 5489 5480 5471 5462 5453 5445 5438 5431 5426 5422 5418 5413 5409 5405 5400 5394 5389 5384 5379 5373 5368 5362 5354 5347 5341 5334 5327 5319 5312 5304 5297 5291 5284 5277 5271 5263
5580 5570 5555 5542 5530 5520 5511 5500 5490 5480 5471 5463 5454 5446 5441 5434 5429 5423 5418 5413 5409 5403 5399 5393 5388 5382 5376 5369 5361 5354 5347 5340 5332 5324 5316 5307 5299 5291 5281 5272 5264 5258 5251 5243
5582 5568 5555 5545 5536 5525 5515 5504 5494 5484 5474 5465 5456 5450 5443 5436 5429 5422 5416 5411 5408 5402 5396 5391 5385 5377 5369 5362 5354 5346 5337 5328 5319 5309 5300 5290 5281 5271 5262 5251 5242 5233 5226 5219
5580 5568 5560 5549 5539 5528 5518 5507 5497 5486 5476 5467 5459 5451 5443 5435 5429 5423 5418 5414 5407 5401 5393 5386 5380 5373 5364 5354 5345 5335 5325 5314 5303 5292 5280 5268 5257 5247 5239 5229 5220 5212 5204 5197
5581 5572 5562 5551 5540 5530 5519 5508 5498 5488 5479 5469 5460 5452 5444 5437 5430 5426 5419 5413 5406 5400 5393 5384 5374 5365 5356 5345 5335 5324 5311 5299 5285 5273 5261 5249 5237 5227 5218 5210 5202 5195 5187 5179